Velovelo
Português Nederlands 日本語 中文
Español English čeština slovenčina
русский italiano polski norsk
français Deutsch svenska عربي
 
 Página anterior
 Enviar a un amigo
 Para imprimir
 ---> La Passageoise 2008 : Résultats du 137 km

En avant première, découvrez vos nouveaux espaces d’expression (en cours)
- www.forumvelo.com

Enregistrez-vous puis exprimez-vous sur cette épreuve ...
- Forum sur La Passageoise 2008

ClNom PrénomCatC.cTemps............Dipl....
1 LAGRANGE MARC F .....1.... 03:28:56:03 OR
2 BEAUBRUN ANTOINE C ..1....... 03:28:56:07 OR
3 CEDRE DAVID C ..2....... 03:28:57:05 OR
4 CHATELAS LIONEL D ...1...... 03:29:11:08 OR
5 DOMMAIN LAURENT D ...2...... 03:29:16:04 OR
6 AMBLARD NICOLAS C ..3....... 03:29:16:06 OR
7 GERONAZZO CHRISTOPH D ...3...... 03:29:18:04 OR
8 TOMBELAINE REGIS G ..1... 03:29:30:03 OR
9 SIMATOS GERALD C ..4....... 03:29:30:04 OR
10 GUAZZINI GERARD E ....1..... 03:29:32:02 OR
11 DELMAS OLIVIER D ...4...... 03:30:12:05 OR
12 BESSE MICHEL G ......2... 03:30:13:04 OR
13 NEGRE CHRISTOPHE D ...5...... 03:30:36:02 OR
14 CASTELLANO STEPHANE E ....2..... 03:30:36:07 OR
15 BASSERY ANDRE I ...1. 03:30:37:01 OR
16 GAILLARD PASCAL E ....3..... 03:30:37:05 OR
17 ROCHA JOSE F .....2.... 03:30:37:05 OR
18 CLEMENT PHILIPPE F .....3.... 03:30:37:05 OR
19 TERRASSON VINCENT E ....4..... 03:30:37:06 OR
20 LEBAUD GERARD H ...1.. 03:30:37:06 OR
21 NOURY DOMINIQUE G ...3... 03:30:37:06 OR
22 GAFFARD ALAIN G ......4... 03:30:37:08 OR
23 GUIDON FABRICE G ......5... 03:30:37:08 OR
24 GUTIERREZ AUGUSTIN G ......6... 03:30:37:09 OR
25 BARRIERE JEAN MARIE H .......2.. 03:30:38:01 OR
26 AME PHILIPPE F .....4.... 03:30:38:01 OR
27 DEFAYE JEAN PAUL E ....5..... 03:30:38:01 OR
28 MESTADIER PASCAL E ....6..... 03:30:38:03 OR
29 HUERTAS FREDERIC D ...6...... 03:30:38:04 OR
30 MARTAUD ERIC F .....5.... 03:30:39:01 OR
31 GONCALVES GILLES F .....6.... 03:30:39:02 OR
32 GAILLARD MARC G ......7... 03:30:39:04 OR
33 LAPORTE MICHEL F .....7.... 03:30:39:05 OR
34 PERNON YVES G ......8... 03:30:39:06 OR
35 KOESSLER LAURENT D ...7...... 03:30:40:03 OR
36 BENJUMEA JOSE F .....8.... 03:30:40:07 OR
37 AMILHAT MAX H ..3.. 03:30:41:01 OR
38 MONJOFFRE ERIC F .....9.... 03:30:41:01 OR
39 BERIOU JEAN MARC E ....7..... 03:30:41:01 OR
40 VRIGNON CYRIL D ...8...... 03:30:41:05 OR
41 PHILIPPEAU CHRISTOPHE E ....8..... 03:30:41:08 OR
42 CENDREZ BRUNO D ...9...... 03:30:43:01 OR
43 NAY STEPHANE D ...1 0...... 03:30:43:02 OR
44 GIACOSA JOEL D ...1 1...... 03:30:43:07 OR
45 LLORET MICHEL H .......4.. 03:30:44:01 OR
46 AVERTY STEPHANE D ...1 2...... 03:30:44:02 OR
47 DEPIERREFIXE FLORENT E ....9..... 03:30:44:09 OR
48 JOYET JOEL G ......9... 03:30:45:02 OR
49 COUDERC DIDIER E ....1 0..... 03:30:45:02 OR
50 BOUQUET FRANCK D ...1 3...... 03:30:45:06 OR
51 BABOT THIERRY E ....1 1..... 03:30:45:08 OR
52 DUMAS LAURENT D ...1 4...... 03:30:45:08 OR
53 PECOSTE CHRISTIAN G ......1 0... 03:30:46:05 OR
54 PREAU STEPHANE F .....1 0.... 03:30:47:01 OR
55 BERTHOU MICKAEL D ...1 5...... 03:30:47:06 OR
56 PANISSARD DIDIER E ....1 2..... 03:30:48:01 OR
57 CRAPEZ LUC E ....1 3..... 03:30:48:04 OR
58 MINELLO JEROME D ...1 6...... 03:30:48:08 OR
59 MONJALES FREDERIC F .....11.... 03:30:49:01 OR
60 CLIGNET MARION B .1........ 03:30:49:01 OR
61 PLUQUET JEAN LUC F .....1 2.... 03:30:50:01 OR
62 PASELLO JEROME D ...1 7...... 03:30:52:01 OR
63 LACOMBE ARNAUD D ...1 8...... 03:30:52:07 OR
64 NEGRE CYRIL D ...1 9...... 03:30:53:04 OR
65 NICOT JULIEN C ..5....... 03:30:54:01 OR
66 MATTIO PASCAL E ....1 4..... 03:30:54:03 OR
67 FLAMENT LAURENT D ...2 0...... 03:30:54:09 OR
68 GAMZA LUDOVIC C ..6....... 03:30:58:08 OR
69 TLEMSANI MANSSORE D ...2 1...... 03:31:05:04 OR
70 DUPUIS DIDIER E ....1 5..... 03:31:11:04 OR
71 AZCON ROGER F .....1 3.... 03:32:59:03 OR
72 BEGUIER PIERRE F .....1 4.... 03:33:00:01 OR
73 MATHIS ERIC E ....1 6..... 03:33:00:05 OR
74 BLIGNY DANIEL G ......1 1... 03:33:01:06 OR
75 CANAMAS DANIEL E ....1 7..... 03:33:01:07 OR
76 VELLARD JEAN MICHEL E ....1 8..... 03:33:02:04 OR
77 DELLA LIBERA FABIEN E ....1 9..... 03:33:02:05 OR
78 DUBOSQ THIERRY H .......5.. 03:33:03:03 OR
79 DELSERRE PATRICK F .....1 5.... 03:33:03:05 OR
80 DEBUS ARMAND I ........2. 03:33:03:09 OR
81 MEHAUT CHRISTOPHE D ...2 2...... 03:33:04:01 OR
82 AUPETIT CEDRIC D ...2 3...... 03:33:04:04 OR
83 AIRAULT MATHIEU C ..7....... 03:33:05:08 OR
84 MERIGNEUX MARC I ........3. 03:33:06:08 OR
85 SIMON YVON D ...2 4...... 03:33:07:06 OR
86 CHAMPION GREGORY D ...2 5...... 03:33:07:09 OR
87 MONTO JOEL G ......1 2... 03:33:09:02 OR
88 LOUDES CHRISTIAN F .....1 6.... 03:33:09:03 OR
89 LAURENT STEPHANE C ..8....... 03:33:09:06 OR
90 GLEIZES THIERRY F .....1 7.... 03:33:11:03 OR
91 DE ZOTTI DIDIER F .....1 8.... 03:33:13:05 OR
92 BEYLOT FREDERIC D ...2 6...... 03:33:14:01 OR
93 PINARD GILLES G ......1 3... 03:33:15:08 OR
94 FREGEVILLE STEPHANE D ...2 7...... 03:33:20:01 OR
95 ARES LAURENT D ...2 8...... 03:33:22:03 OR
96 FAURE JEAN CHARLES C ..9....... 03:33:23:05 OR
97 PLACAIS YVES E ....2 0..... 03:36:02:01 OR
98 GENOVESIO LIONEL D ...2 9...... 03:36:39:09 OR
99 GERMON PATRICE H .......6.. 03:36:40:04 OR
100 VIDALIE MICHEL H .......7.. 03:36:41:05 OR
101 DUCHIRON JEAN PAUL G ......1 4... 03:36:42:01 OR
102 STANESCO JOEL H .......8.. 03:36:43:02 OR
103 ANDOLFI JEAN PHILIPPE E ....2 1..... 03:36:43:06 OR
104 CHARPENTIER DOMINIQU F .....1 9.... 03:36:43:08 OR
105 JOUAUD LUDOVIC C ..1 0...... 03:36:44:09 OR
106 PIGATTI JOEL G ......1 5... 03:36:45:03 OR
107 DELIAS GUILLAUME C ..1 1...... 03:36:46:08 OR
108 GARCIA JEAN MARIE D ...3 0...... 03:36:46:08 OR
109 LOPEZ FRANCIS G ......1 6... 03:36:47:01 OR
110 ROLLAND BERNARD I ........4. 03:36:48:01 OR
111 BORE JOEL E ....2 2..... 03:36:49:05 OR
112 LAFFARGUE JEAN_MARC F .....2 0.... 03:36:51:01 OR
113 QUILICO STEPHANE D ...3 1...... 03:36:51:01 OR
114 SOUBIRAN AURELIEN C ..1 2...... 03:36:53:03 OR
115 MALVY STEPHANE C ..1 3...... 03:38:45:02 OR
116 ENJALBERT CHRISTOPHE D ...3 2...... 03:39:48:03 OR
117 DEGUERNEL MICHEL I ........5. 03:39:55:04 OR
118 BONNET OLIVIER D ...33...... 03:39:55:09 OR
119 HIDOT SERGE H .......9.. 03:39:56:03 OR
120 MOURIN CAMILLE H .......1 0. 03:39:56:09 OR
121 SARTRAND JEAN PASCAL F .....2 1.... 03:39:56:09 OR
122 BOURCEY ALAIN I ........6. 03:39:57:01 OR
123 BIGOT VIANNEY D ...3 4...... 03:39:57:01 OR
124 DESMACON HENRI I ........7. 03:39:57:03 OR
125 DUCASSE GERARD F .....2 2.... 03:39:57:04 OR
126 BERMONT BERTRAND F .....2 3.... 03:39:57:06 OR
127 SEBASTIA CHRISTIAN G ......1 7... 03:39:57:06 OR
128 PERIER BERNARD G ......1 8... 03:39:57:07 OR
129 SIRJACQUES DIDIER E ....2 3..... 03:39:58:03 OR
130 BRULAT STEPHANE D ...3 5...... 03:39:58:03 OR
131 JAMBRINA PENALBA JEAN C ..1 4...... 03:39:58:04 OR
132 RIAL RENE I ........8. 03:39:58:05 OR
133 DESHOULIERES MICHEL G ......1 9... 03:39:58:07 OR
134 CELLA THIERRY D ...3 6...... 03:39:58:08 OR
135 THEPAUT GUY H .......1 1. 03:39:58:09 OR
136 MARTIN PHILIPPE E ....2 4..... 03:39:58:09 OR
137 SIMON LAURENT F .....2 4.... 03:39:59:01 OR
138 BORGNIET BERNARD F .....2 5.... 03:39:59:01 OR
139 CHAMPARNAUD JACQUES H .......1 2. 03:39:59:01 OR
140 BLANC PHILIPPE F .....2 6.... 03:39:59:03 OR
141 TIAR JEAN CLAUDE F .....2 7.... 03:39:59:05 OR
142 JEANNESSON MICHEL H .......1 3. 03:39:59:05 OR
143 DESHOULIERES FRANCIS F .....2 8.... 03:39:59:07 OR
144 CASTERET STEVE D ...3 7...... 03:39:59:07 OR
145 BOUCHET GERARD I ........9. 03:39:59:07 OR
146 CAPMAS BRUNO E ....2 5..... 03:40:00:01 OR
147 JOFFROY WILLIAM D ...3 8...... 03:40:00:04 OR
148 BECHADE STEPHANE D ...3 9...... 03:40:00:05 OR
149 FOURNIER DOMINIQUE G ......2 0... 03:40:00:09 OR
150 IMBERTY BERNARD F .....2 9.... 03:40:01:08 OR
151 CASTERET BENOIT C ..1 5...... 03:40:02:01 OR
152 GIBSON PAUL E ....2 6..... 03:40:02:01 OR
153 PENOT CHRISTIAN E ....2 7..... 03:40:03:02 OR
154 TANTIN MICHEL G ......2 1... 03:40:05:01 OR
155 DELIAS PATRICK G ......2 2... 03:40:05:02 OR
156 BIAUNIER JEAN MARIE F .....3 0.... 03:40:06:08 OR
157 BOY LAURENT F .....3 1.... 03:40:06:09 OR
158 MOZAS THIERRY F .....3 2.... 03:40:08:04 OR
159 FOURNIER FRANCOIS H .......1 4. 03:40:13:02 OR
160 ROYERE DAVID D ...4 0...... 03:40:23:08 OR
161 SOULARD JEAN CLAUDE D ...4 1...... 03:40:50:06 OR
162 BOISSEUIL ROLAND H .......1 5. 03:40:51:00 OR
163 PEYROUTET JEROME C ..1 6...... 03:44:26:09 OR
164 ARRIUBERGE ALAIN F .....3 3.... 03:44:27:01 OR
165 LE GOFF FRANCOIS H .......1 6. 03:44:28:03 OR
166 SABOURAUD DANIEL G ......2 3... 03:44:37:01 OR
167 GRAND JEAN FRANCOIS E ....2 8..... 03:44:37:01 OR
168 GRILLON FABRICE H .......1 7. 03:44:37:03 OR
169 COSTES LAURENT E ....2 9..... 03:44:37:04 OR
170 GUERIT PASCAL F .....3 4.... 03:44:38:01 OR
171 CODOLO THIERRY E ....3 0..... 03:44:38:01 OR
172 LAMOTHE JEAN G ......2 4... 03:44:38:06 OR
173 ROBERT GUILLAUME D ...4 2...... 03:44:39:04 OR
174 DA SILVA PAUL E ....3 1..... 03:44:39:06 OR
175 JOUSSERAND SEBASTIEN D ...4 3...... 03:44:54:06 OR
176 CORNU MAURICE H .......1 8. 03:45:03:03 OR
177 GERMAIN PHIPPE E ....32..... 03:45:20:01 OR
178 PEDELOUP THIERRY E ....3 3..... 03:45:20:02 OR
179 GOMILA ERIC D ...4 4...... 03:45:20:06 OR
180 BAXELLERIE CHRISTIAN G ......2 5... 03:45:21:05 OR
181 DUVIGNEAU CEGRYL D ...4 5...... 03:45:22:04 OR
182 LABARDIN GERARD G ......2 6... 03:45:32:02 OR
183 LESTIEUX PHILIPPE E ....3 4..... 03:45:32:02 OR
184 FAYET ERIC E ....3 5..... 03:45:59:09 OR
185 PARIS BRUNO F .....3 5.... 03:46:00:06 OR
186 BROUSSET FRANCIS H .......1 9. 03:46:01:02 OR
187 CHOISEL MARC G ......2 7... 03:46:01:02 OR
188 BENETREAU FREDERIC D ...4 6...... 03:46:07:01 OR
189 BIBIE ROBERT G ......2 8... 03:46:10:04 OR
190 DELMAS GILBERT I ........1 0 03:46:12:04 OR
191 JANICOT JEAN MARC F .....3 6.... 03:46:12:09 OR
192 DUPAQUIER ROLAND I ........1 1 03:46:13:01 OR
193 FORT DANIEL I ........1 2 03:46:13:02 OR
194 BERGER YVES H .......2 0. 03:46:15:07 OR
195 JEAN DANIEL H .......2 1. 03:46:16:02 OR
196 DEFRANCE GILLES H .......2 2. 03:46:18:04 OR
197 CHAZELAS JEAN LUC F .....3 7.... 03:46:26:09 OR
198 DONNET ADRIEN C ..1 7...... 03:46:33:03 OR
199 CHATELAS MICHEL H .......2 3. 03:48:46:08 OR
200 DESCO RENE PIERRE H .......2 4. 03:48:46:09 OR
201 SAGOT MICHEL H .......2 5. 03:48:47:01 OR
202 BOURINET GUY H .......2 6. 03:48:47:06 OR
203 GUENE MICHEL H .......2 7. 03:48:48:01 OR
204 TAVERNA JACQUES G ......2 9... 03:48:48:05 OR
205 AMBLARD ALAIN E ....3 6..... 03:48:49:02 OR
206 DIGNEAUX PIERRE F .....3 8.... 03:48:49:02 OR
207 DEPLAIGNE FABRICE F .....3 9.... 03:48:49:08 OR
208 RODIER GILLES D ...4 7...... 03:48:50:01 OR
209 DELMAS FRANCIS E ....3 7..... 03:48:50:02 OR
210 BIELSA LAURENT E ....3 8..... 03:48:50:04 OR
211 BARDET ROBERT I ........1 3 03:48:51:01 OR
212 GAUTRONNEAU ERIC F .....4 0.... 03:48:51:01 OR
213 DUPRAZ JEAN PAUL I ........1 4 03:48:51:02 OR
214 LANNELONGUE NICOLAS D ...4 8...... 03:48:51:06 OR
215 DEJEAN PIERRE D ...4 9...... 03:48:51:08 OR
216 DELLA LIBERA JEAN PIER I ........1 5 03:48:52:04 OR
217 PEGOURIE JEAN MICHEL F .....4 1.... 03:48:52:05 OR
218 CLAVERIE PATRICE F .....4 2.... 03:48:53:01 OR
219 LAGARDE MAXIME F .....4 3.... 03:48:53:04 OR
220 HOURDEBAIGT GERARD G ......3 0... 03:48:53:06 OR
221 GUIRAUD LAURENT E ....3 9..... 03:48:53:08 OR
222 MERCADER CHRISTIAN H .......2 8. 03:48:54:03 OR
223 BERTAUDAU PAUL F .....4 4.... 03:48:54:07 OR
224 NONNAT YANNICK D ...5 0...... 03:48:54:08 OR
225 BAROTIN YVES G ......3 1... 03:48:55:01 OR
226 MONDORY SEBASTIAAN D ...5 1...... 03:48:55:03 OR
227 DEKEUNYNCK JACKY G ......3 2... 03:48:55:04 OR
228 CATROU JEAN PAUL H .......2 9. 03:48:55:06 OR
229 MALY OLIVIER D ...5 2...... 03:48:55:08 OR
230 BARRES CHRISTIAN H .......3 0. 03:48:56:02 OR
231 RILLOT FLORENCE B .2........ 03:48:56:02 OR
232 LHERMITE SAMUEL D ...5 3...... 03:48:56:09 OR
233 DUTEIL PATRICK H .......3 1. 03:48:57:08 OR
234 SIX CHRISTOPHE E ....4 0..... 03:48:57:08 OR
235 GANDIN DIDIER F .....4 5.... 03:48:58:06 OR
236 BOUTIN MICHEL H ......... 03:48:59:03 OR
237 BONNEAU GERARD F .....4 6.... 03:48:59:07 OR
238 MATHAU ARMAND I ........1 6 03:49:01:02 OR
239 MICHONNEAU JULIEN C ..1 8...... 03:50:59:07 OR
240 VILLESANGE JEAN PIERR F .....4 7.... 03:51:00:01 OR
241 LUQUET MICHEL E ....4 1..... 03:51:07:06 OR
242 SORIANO PHILIPPE F .....4 8.... 03:51:11:09 OR
243 GASSELIN THIERRY E ....4 2..... 03:51:13:01 OR
244 FORTIN CHRISTOPHE D ...5 4...... 03:51:13:02 OR
245 ILLIAQUER GERARD H .......3 3. 03:51:13:03 OR
246 VENON PIERRE I ........1 7 03:51:13:04 OR
247 DARTHOS BRUNO G ......3 3... 03:51:13:07 OR
248 SACCHET JACQUES H .......3 4. 03:51:13:07 OR
249 VALLEE JEAN LOUIS G ......3 4... 03:51:14:01 OR
250 DELPORTE ALAIN F .....4 9.... 03:51:14:07 OR
251 COUDERC JEAN MARIE I ........1 8 03:51:14:07 OR
252 BIANCO GEORGES G ......3 5... 03:51:15:01 OR
253 COQUET ANDRE I ........1 9 03:51:15:06 OR
254 PASTOR JEAN PIERRE F .....5 0.... 03:51:15:08 OR
255 FLEURY PIERRE F .....5 1.... 03:51:15:09 OR
256 NEPY FRANCOIS G ......3 6... 03:51:16:01 OR
257 PITOUX CHRISTIAN H .......3 5. 03:51:16:01 OR
258 BOURDETTE JEAN MARC E ....4 3..... 03:51:16:02 OR
259 DUCHENE LOIC E ....4 4..... 03:51:16:03 OR
260 MOULINIER CHRISTIAN G ......3 7... 03:51:16:04 OR
261 LORA RUNCO GERARD H .......3 6. 03:51:16:06 OR
262 BARDET NICOLE B .3........ 03:51:16:06 OR
263 COSTALUNGA ROBERT H .......3 7. 03:51:17:01 OR
264 CANLER PHILIPPE G ......3 8... 03:51:17:03 OR
265 JAMMET CLAUDE H .......3 8. 03:51:17:03 OR
266 BESSON BRUNO F .....5 2.... 03:51:17:05 OR
267 CAPEL FABRICE D ...5 5...... 03:51:17:05 OR
268 LAVANDIER DANIEL G ......3 9... 03:51:17:08 OR
269 DORNIER CLAUDE H .......3 9. 03:51:17:09 OR
270 BOUZAT DIDIER F .....5 3.... 03:51:18:06 OR
271 DATCHARRY YVES H .......4 0. 03:51:18:09 OR
272 SALLAT DIDIER E ....4 5..... 03:51:19:07 OR
273 BARDET PATRICK F .....5 4.... 03:51:20:01 OR
274 MONTIGNY ALAIN Y .........1 03:51:20:02 OR
275 ELCROIX PASCAL D ...5 6...... 03:51:21:02 OR
276 SIGNOR JEAN MARIE E ....4 6..... 03:51:21:04 OR
277 SEGUE FRANÇOIS G ......4 0... 03:51:21:05 OR
278 BRODU MATHIEU C ..1 9...... 03:51:21:08 OR
279 DAVIAUD JEAN CLAUDE I ........2 0 03:51:22:05 OR
280 QUESADA PIERRE D ...5 7...... 03:51:22:09 OR
281 TORRES JEAN FRANCOIS E ....4 7..... 03:51:24:02 OR
282 COM NOUGUE DOMINIQUE F .....5 5.... 03:51:24:05 OR
283 MAROSTICA NICOLAS C ..2 0...... 03:51:26:08 OR
284 MOREIRA CARLOS E ....4 8..... 03:51:34:03 OR
285 MAGNAN CLAUDE I ........2 1 03:51:43:03 OR
286 MOYA JUAN F .....5 6.... 03:54:27:08 OR
287 PEROTTEAU CLAUDE G ......4 1... 03:54:31:01 OR
288 ABEILLE PATRICK C ..2 1...... 03:54:31:05 OR
289 VAN SON MICKAEL E ....4 9..... 03:54:31:05 OR
290 BIDOUARD PHILIPPE G ......4 2... 03:54:31:07 OR
291 MASIP CEDRIC C ..2 2...... 03:54:32:01 OR
292 FAJOL JEROME D ...5 8...... 03:54:32:01 OR
293 LORY MICHEL F .....5 7.... 03:54:32:03 OR
294 HERAUD JEAN CLAUDE H .......4 1. 03:54:33:01 OR
295 AVIAN JEAN CHRISTOPHE E ....50..... 03:54:33:02 OR
296 DUPAU MICHEL G ......4 3... 03:54:33:06 OR
297 MARQUES GERARD H .......4 2. 03:54:33:06 OR
298 REY PATRICK E ....5 1..... 03:54:33:07 OR
299 MARVIER CHRISTOPHE D ...5 9...... 03:54:34:03 OR
300 BOUCHET BRUNO D ...6 0...... 03:54:34:03 OR
301 GUEHO THIERRY D ...6 1...... 03:54:34:04 OR
302 TREMBLAY MICHEL I ........2 2 03:55:10:05 OR
303 PEREMANS YVES E ....5 2..... 03:56:01:08 OR
304 DUBOST JEAN MARC G ......4 4... 03:56:10:09 OR
305 CHELEUX ERIC F .....5 8.... 03:56:11:03 OR
306 SOULE CHRISTOPHE F .....5 9.... 03:56:11:08 OR
307 CORTESI BRUNO E ....5 3..... 03:56:14:07 OR
308 BRECHET STEPHANE D ...6 2...... 03:56:15:05 OR
309 CAYROU SYLVAIN D ...6 3...... 03:56:22:01 OR
310 ROUSSILLE DOMINIQUE F .....6 0.... 03:56:47:01 OR
311 RANOUIL OLIVIER D ...6 4...... 03:56:57:08 OR
312 DAURIAC FRANCK D ...6 5...... 03:57:00:00 OR
313 DEVAINE PASCAL D ...6 6...... 03:57:02:05 OR
314 FEISSAT THIERRY D ...6 7...... 03:57:03:05 OR
315 BIDOUZE JEAN LUC F .....6 1.... 03:57:03:08 OR
316 SECEILLE DIDIER H .......4 3. 03:57:05:03 OR
317 RECAPET CHRISTIAN I ........2 3 03:57:09:07 OR
318 AUDHUY FRANCOIS E ....5 4..... 03:57:11:01 OR
319 GILBARDIE PATRICK E ....5 5..... 03:57:15:02 OR
320 CAMPAN NICOLAS C ..2 3...... 03:57:16:03 ARGENT
321 SAINT MARTIN ALAIN F .....6 2.... 03:57:29:09 OR
322 GONZALEZ MANUEL F .....6 3.... 03:57:49:09 OR
323 TABARLY GERARD F .....6 4.... 03:57:50:09 OR
324 RODRIGUES ROMEO D ...6 8...... 03:57:51:07 OR
325 FABES CLAUDE I ........2 4 03:57:52:01 OR
326 FAUROUS HENRI D ...6 9...... 03:57:52:03 OR
327 MOUSSET MARC D ...7 0...... 03:57:52:03 OR
328 JARNAC DAVID D ...7 1...... 03:57:52:04 OR
329 AVERTY DANIEL H .......4 4. 03:57:52:08 OR
330 VALADE CHRISTIAN F .....6 5.... 03:57:52:09 OR
331 PELLEFIGUE ERIC E ....5 6..... 03:57:53:02 OR
332 DESVAUX PHILIPPE E ....5 7..... 03:57:53:03 OR
333 CORDEILLA PATRICK E ....5 8..... 03:57:53:09 OR
334 GOURGUES JEAN LOUIS G ......4 5... 03:57:54:02 OR
335 PICKERING LESLIE I ........2 5 03:57:54:02 OR
336 CHAUSSIER DIDIER F .....6 6.... 03:57:54:03 OR
337 TEILLAUMAS JEAN LUC F .....6 7.... 03:57:56:05 OR
338 BARBERE JEAN LUC E ....5 9..... 03:58:00:09 OR
339 TALON CLAUDE G ......4 6... 03:58:03:06 OR
340 CHADAIGNE MAXIME D ...7 2...... 03:58:15:04 OR
341 POISSONNET JAMES I ........2 6 03:58:27:03 OR
342 DELBOSQ ERIC F .....6 8.... 03:59:13:07 OR
343 MARTY CHRISTIAN F .....6 9.... 03:59:13:07 OR
344 LAURENT MICHEL G ......4 7... 03:59:13:07 OR
345 DUTHILLEUL MICHEL G ......4 8... 03:59:14:04 OR
346 MONZIE JEAN PIERRE F .....7 0.... 03:59:15:09 OR
347 DELOUS DENIS G ......4 9... 03:59:16:01 OR
348 ALLAMANNO ROBERT H .......4 5. 03:59:16:05 OR
349 ALVES ANTOINE F .....7 1.... 03:59:16:07 OR
350 NEGRIER REGIS F .....7 2.... 03:59:17:09 OR
351 PREVOT CLAUDE G ......5 0... 03:59:18:03 OR
352 BARATEIRO ALAIN G ......5 1... 03:59:54:09 OR
353 ALBINET ANDRE F .....7 3.... 04:00:21:06 OR
354 LASCOMBES JEAN PIERRE F .....74.... 04:00:23:09 OR
355 CANTET JACQUES F .....7 5.... 04:00:25:03 OR
356 NICOLAS GUY H .......4 6. 04:00:41:05 OR
357 FILLOUX ALAIN H .......4 7. 04:00:42:07 OR
358 MAQUAIRE JEAN YVES H .......4 8. 04:00:44:09 OR
359 REY PIERRE I ........2 7 04:00:45:00 OR
360 BECHADE RAYMOND H .......4 9. 04:00:45:02 OR
361 ROUILLON JACQUES I ........2 8 04:00:45:07 OR
362 CHATELAS CHRISTIAN H .......5 0. 04:00:45:08 OR
363 DUFANT PATRICK F .....7 6.... 04:00:45:08 OR
364 BOUCHER ERIC E ....6 0..... 04:00:46:04 OR
365 SALVETAT FREDERIC E ....6 1..... 04:00:46:04 OR
366 JAVIERRE MICHEL H .......5 1. 04:00:48:03 OR
367 DELAS MICHEL I ........2 9 04:01:04:04 OR
368 DUFAYET PATRICK D ...7 3...... 04:01:05:04 OR
369 JOSSELIN CHRISTOPHE C ..2 4...... 04:02:13:03 ARGENT
370 CHARLOIS FABRICE D ...7 4...... 04:02:16:07 OR
371 BEDIS CLAUDE F .....7 7.... 04:02:20:01 OR
372 DIEUMEGARD BERNARD F .....7 8.... 04:02:23:06 OR
373 DAOUD JOSEPH F .....7 9.... 04:02:28:07 OR
374 PELLO ANDRE H .......5 2. 04:02:29:04 OR
375 THAUVIN THIERRY E ....6 2..... 04:02:43:09 OR
376 GRIMARD MICHEL D ...7 5...... 04:02:44:08 OR
377 FEISSAT RENE I ........3 0 04:02:48:01 OR
378 GASCOU MARCEL H .......5 3. 04:02:48:01 OR
379 SESE JEAN PIERRE F .....8 0.... 04:02:48:03 OR
380 LE DILY PHILIPPE G ......5 2... 04:02:49:02 OR
381 GRABARSKI THIERRY D ...7 6...... 04:02:49:05 OR
382 ESCALIER DOMINIQUE F .....8 1.... 04:02:49:06 OR
383 DUPUY BERNARD E ....6 3..... 04:02:49:08 OR
384 SOUBIRAN RENE G ......5 3... 04:02:50:04 OR
385 PAYRASTRE MICHEL H .......5 4. 04:02:51:01 OR
386 COUTINHO PHILIPPE E ....6 4..... 04:02:51:02 OR
387 BABIN OLIVIER Y .........2 04:02:53:06 OR
388 BOUSQUET RODOLPHE C ..2 5...... 04:03:52:05 ARGENT
389 PENNY CYRIL D ...7 7...... 04:04:04:08 OR
390 COMBEAU GILLES F .....8 2.... 04:04:06:01 OR
391 GUELIN ERIC E ....6 5..... 04:04:23:04 OR
392 LE MEUR CHRISTOPHE D ...7 8...... 04:04:32:01 OR
393 GIL RENAUD E ....6 6..... 04:05:38:05 OR
394 MEOT RODOLPHE D ...7 9...... 04:05:42:02 OR
395 BOER PATRICE D ...8 0...... 04:05:42:02 OR
396 OCCHIONERO MICHEL F .....8 3.... 04:05:42:03 OR
397 GINTRAND CHRISTINE A 1......... 04:05:42:07 OR
398 ELMS MALCOLM H .......5 5. 04:05:43:04 OR
399 DESBATS ROBERT G ......5 4... 04:05:43:04 OR
400 GRANIER DIDIER H .......5 6. 04:05:43:07 OR
401 ESTIER ROLAND F .....8 4.... 04:05:43:09 OR
402 BORNET JEAN CLAUDE H .......5 7. 04:05:44:01 OR
403 BOIREAU LUDOVIC D ...8 1...... 04:05:44:01 OR
404 SUAREZ BRUNO D ...8 2...... 04:05:44:03 OR
405 GALIAT JEAN H .......5 8. 04:05:44:03 OR
406 ESCAUDE MAISON ANDRE H .......5 9. 04:05:44:06 OR
407 SAUBOI BERNARD G ......5 5... 04:05:44:09 OR
408 GARRIGUE PHILIPPE F .....8 5.... 04:05:45:01 OR
409 LAVAUD MICHEL H .......6 0. 04:05:45:02 OR
410 DUBOUCHAUD GUY H .......6 1. 04:05:45:02 OR
411 ROUTIS GEORGES I ........3 1 04:05:45:05 OR
412 MORAT CHRISTIAN D ...8 3...... 04:05:45:08 OR
413 CARIOU ANDRE H ......... 04:05:45:08 OR
414 THOMAS JEAN PIERRE I ........3 2 04:05:46:01 OR
415 LAFUGE JACQUES H .......6 3. 04:05:46:02 OR
416 GORNY HENRI H .......6 4. 04:05:46:06 OR
417 RIVIERE DIDIER F .....8 6.... 04:05:46:06 OR
418 PEROT FRANCOIS I ........3 3 04:05:46:06 OR
419 AZNAR JEAN PAUL D ...8 4...... 04:05:46:07 OR
420 LUCAM PATRICK F .....8 7.... 04:05:47:01 OR
421 MONJOT HENRI I ........3 4 04:05:47:01 OR
422 FIALEYRE PHILIPPE F .....8 8.... 04:05:47:01 OR
423 DE MAGALHAES HENRIQU D ...8 5...... 04:05:48:01 OR
424 TAUZIN GERARD H .......6 5. 04:05:48:02 OR
425 LACOSTE THIERRY E ....6 7..... 04:05:48:07 OR
426 FROMI RAPHAEL D ...8 6...... 04:05:48:08 OR
427 BERRIOT JEAN JACQUES G ......5 6... 04:05:49:05 OR
428 JOURDANE SEBASTIEN D ...8 7...... 04:05:49:06 OR
429 BARON JEAN CHARLES H .......6 6. 04:05:49:06 OR
430 BOISSIERE GILLES D ...8 8...... 04:05:50:02 OR
431 JOURDAN DANIEL G ......5 7... 04:05:50:02 OR
432 DUSSAUD MICHEL X ......... 04:05:51:03 OR
433 COMMUNAL JEAN CLAUDE I ........3 5 04:05:51:05 OR
434 BRUSSON MICHEL I ........3 6 04:05:51:07 OR
435 TUFFAL CHRISTOPHE D ...8 9...... 04:05:51:07 OR
436 DISTINGUIN STEPHANE D ...9 0...... 04:05:52:07 OR
437 CHEVALLIEZ BRUNO G ......5 8... 04:05:53:03 OR
438 BUTTANI RENE H .......6 7. 04:05:54:01 OR
439 CARRAZE FRANCOIS I ........3 7 04:05:54:04 OR
440 NEGRIER HERVE E ....6 8..... 04:05:56:02 OR
441 CIBERT GILBERT H .......6 8. 04:05:56:02 OR
442 GUERIN DIDIER D ...9 1...... 04:05:57:03 OR
443 MASSON YVAN G ......5 9... 04:06:04:09 OR
444 GILLET JOEL G ......6 0... 04:06:08:02 OR
445 VIDEIRA BERNARD F .....8 9.... 04:06:18:05 OR
446 LANSADE PHILIPPE G ......6 1... 04:06:19:01 OR
447 CAZEMAJOU FRANCIS H .......6 9. 04:06:32:02 OR
448 COURIVAUD JEAN FRANC F .....9 0.... 04:06:36:04 OR
449 KEREMBELLEC ANDRE G ......6 2... 04:06:55:04 OR
450 TCHERBAKOFF MICHEL I ........3 8 04:06:56:03 OR
451 GUILLAUMIE YVES H .......7 0. 04:07:07:03 OR
452 OLLIE GERARD G ......6 3... 04:08:24:02 OR
453 ROUDIL CHRISTIAN F .....9 1.... 04:08:28:07 OR
454 ROUX DENIS G ......6 4... 04:09:06:05 OR
455 BENSEMAURICE I ........3 9 04:09:43:07 OR
456 GONCALVES PATRICK D ...9 2...... 04:09:52:05 OR
457 BOULBES JEROME D ...9 3...... 04:09:53:02 OR
458 DI COSTANZO ROGER H .......7 1. 04:09:53:02 OR
459 LESCOS JEAN BERNARD F .....9 2.... 04:09:53:04 OR
460 MOYA ALBERT E ....6 9..... 04:10:00:04 OR
461 BONNEFOND ADRIEN I ........4 0 04:10:15:03 OR
462 CECCATO MARIO I ........4 1 04:10:15:07 OR
463 LE LAMER THIERRY D ...9 4...... 04:10:16:01 ARGENT
464 FABER JEAN MICHEL F .....9 3.... 04:10:16:06 OR
465 DUPPI DANIEL D ...9 5...... 04:10:17:02 ARGENT
466 BLANCHET JOEL H .......7 2. 04:10:17:02 OR
467 CAMPOY JOSE H .......7 3. 04:10:32:04 OR
468 DELCAILLOU JACQUES G ......6 5... 04:11:57:06 OR
469 SUTRA JEAN I ........4 2 04:11:57:07 OR
470 METOUX DOMINIQUE F .....9 4.... 04:12:11:07 OR
471 LATGE FRANCIS H .......7 4. 04:12:20:05 OR
472 PONCABARE JEAN LOUIS G ......66... 04:12:42:01 OR
473 STIEBER JEAN PAUL I ........4 3 04:12:42:03 OR
474 OIX PATRICK G ......6 7... 04:12:42:07 OR
475 VIGNES JEAN JACQUES G ......6 8... 04:13:26:08 OR
476 BAYER PIERRE G ......6 9... 04:14:14:02 OR
477 CREBESSEGUES RAYMON H .......7 5. 04:14:42:05 OR
478 DELZON CLAUDE H .......7 6. 04:14:44:02 OR
479 DERREZ PHILIPPE H .......7 7. 04:15:16:04 OR
480 BRUSSON YVES F .....9 5.... 04:15:34:02 OR
481 MATIAS ANTOINE F .....9 6.... 04:16:14:02 OR
482 MOUCHAGUE THIERRY E ....7 0..... 04:16:23:03 ARGENT
483 BELLEGANTE THIERRY E ....7 1..... 04:16:24:09 ARGENT
484 FOULARD DIDIER G ......7 0... 04:16:56:02 OR
485 MESMIN YVES H .......7 8. 04:16:56:05 OR
486 COTS DANIEL H .......7 9. 04:16:57:04 OR
487 JURQUET JEAN MARIE F .....9 7.... 04:16:57:09 OR
488 AUPETIT ALAIN H .......8 0. 04:18:20:04 OR
489 PEREY PHILIPPE F .....9 8.... 04:18:31:06 OR
490 GIMELLE ALAIN G ......7 1... 04:18:32:01 OR
491 BORDENEUVE FRANCK E ....7 2..... 04:18:32:09 ARGENT
492 REDOULEZ HENRI H .......8 1. 04:18:33:06 OR
493 BERDAGUER PHILIPPE E ....7 3..... 04:18:39:06 ARGENT
494 EL GHAZI ALI E ....7 4..... 04:18:40:02 ARGENT
495 RODET XAVIER G ......7 2... 04:19:19:08 OR
496 LEYX DENIS I ........4 4 04:19:20:05 OR
497 BOUZIGON PATRICE F .....9 9.... 04:19:26:01 OR
498 FABREGUES CHRISTIAN H .......8 2. 04:19:26:03 OR
499 BAZINETTE MICHEL G ......7 3... 04:19:26:04 OR
500 DELAGE DIDIER G ......7 4... 04:19:27:01 OR
501 SARRAUSTE ERIC E ....7 5..... 04:19:27:02 ARGENT
502 HUGUET PATRICE E ....7 6..... 04:19:27:02 ARGENT
503 BESSON PAUL I ........4 5 04:19:27:04 OR
504 BARRIEU FRANCIS H .......8 3. 04:19:28:07 OR
505 DURAND PATRICK E ....7 7..... 04:19:29:07 ARGENT
506 TREVISIOL ALAIN F .....1 0 0... 04:19:30:04 OR
507 DAROS ROBERT F .....1 0 1... 04:20:01:04 OR
508 JOLIVET DANIEL G ......7 5... 04:20:04:04 OR
509 GUIBERTEAU CHRISTIAN G ......7 6... 04:20:05:09 OR
510 CHAMPION LAURENT F .....1 0 2... 04:20:20:02 OR
511 SEMENT JEAN PIERRE I ........4 6 04:20:21:01 OR
512 FORESTIER JEAN CLAUDE H .......8 4. 04:20:22:09 OR
513 MOURET JEAN JACQUES F .....1 0 3... 04:20:22:09 OR
514 BURLAT JEAN YVES G ......7 7... 04:20:23:03 OR
515 TRICHET CHRISTIAN H .......8 5. 04:20:25:06 OR
516 MORA GUY I ........4 7 04:21:01:03 OR
517 GOUBERT ERIC E ....7 8..... 04:21:02:03 ARGENT
518 MONESTES FRANCOIS F .....1 0 4... 04:21:04:04 OR
519 FAUGEROLLES SOPHIE A 2......... 04:21:52:01 OR
520 RABOT PATRICK F .....1 0 5... 04:22:14:08 OR
521 MARSAND MICHEL E ....7 9..... 04:22:14:08 ARGENT
522 TERLES FRANCIS I ........4 8 04:22:15:06 OR
523 SAILLARD FREDERIC E ....8 0..... 04:22:19:01 ARGENT
524 GUIDEZ GERARD H .......8 6. 04:23:59:01 OR
525 PHELUT DAVID C ..2 6...... 04:24:12:09 ARGENT
526 AUTIN BRUNO D ...9 6...... 04:24:23:06 ARGENT
527 BLANC SERGE E ....8 1..... 04:24:24:01 ARGENT
528 LARRIEU JEAN CHRISTOP D ...9 7...... 04:24:24:05 ARGENT
529 FERNANDES SERGE G ......7 8... 04:24:24:08 OR
530 PLEPST ROBERT I ........4 9 04:24:25:01 OR
531 BOURDEAU PIERRE F .....106.... 04:24:27:00 OR
532 JOUBERT JEAN CLAUDE I ........5 0 04:24:33:05 OR
533 GENOT GILBERT G ......7 9... 04:24:34:07 OR
534 RANSON XAVIER G ......8 0... 04:24:37:02 OR
535 TROYON CATHERINE B .4........ 04:24:58:05 OR
536 PAILLEX CLAUDE G ......8 1... 04:25:24:03 OR
537 DEBORGGRAEVE FRANCO B .5........ 04:26:05:01 OR
538 BROCHARD FRANCOIS F .....1 0 7... 04:26:06:04 OR
539 VIDAL PATRICIA B .6........ 04:26:08:04 OR
540 ROBERT JEAN MICHEL Y .........3 04:26:08:04 OR
541 JAUNET CLAIRE A 3......... 04:26:13:02 OR
542 PAILLOU MICHEL I ........5 1 04:26:23:02 OR
543 SOUCARROS GRATIEN C ..2 7...... 04:27:59:09 BRONZE
544 HAUSSEGUY JOEL E ....8 2..... 04:28:00:01 ARGENT
545 RAYMOND ROBERT Y .........4 04:28:43:01 OR
546 HOURDEBAIGT PAULE B .7........ 04:28:50:07 OR
547 LESTAGE BERNARD E ....8 3..... 04:29:18:02 ARGENT
548 PEYROUNAUD FERNAND I ........5 2 04:29:20:01 OR
549 FIOR HERVE E ....8 4..... 04:30:39:01 ARGENT
550 DE ANGELIS ALAIN I ........5 3 04:30:39:05 OR
551 AMELINEAU DIDIER E ....8 5..... 04:30:46:03 ARGENT
552 ROUXEL PATRICK G ......8 2... 04:30:46:03 ARGENT
553 MICHEL JOEL E ....8 6..... 04:31:32:04 ARGENT
554 BRYON BERNARD I ........5 4 04:31:54:02 OR
555 BAJT JOEL F .....1 0 8... 04:32:32:02 ARGENT
556 MASSON GILBERT G ......8 3... 04:32:46:04 ARGENT
557 AGUILAR BERNARD F .....1 0 9... 04:35:57:09 ARGENT
558 PEROT JEAN CLAUDE F .....1 1 0... 04:36:29:01 ARGENT
559 SAVINEAU ALAIN G ......8 4... 04:37:17:01 ARGENT
560 LEBLOND DAVID D ...9 8...... 04:37:36:09 ARGENT
561 TRISTANT GERARD H .......8 7. 04:37:38:04 OR
562 PUGINIER CLAUDE G ......8 5... 04:38:41:06 ARGENT
563 CORIOU DANIEL E ....8 7..... 04:39:32:05 ARGENT
564 BURGER JOCELYN D ...9 9...... 04:40:12:06 BRONZE
565 SAMACOITS JEAN PAUL H .......8 8. 04:40:56:02 ARGENT
566 ADRIAN MIGUEL F .....1 1 1... 04:41:54:06 ARGENT
567 COURBIER PATRICK G ......8 6... 04:41:55:04 ARGENT
568 MIGNOT BERNARD H .......8 9. 04:43:59:05 ARGENT
569 LAFORIE PATRICK G ......8 7... 04:44:10:08 ARGENT
570 GAGLIONE JEAN MICHEL F .....1 1 2... 04:44:48:02 ARGENT
571 BADIE JACQUES F .....1 1 3... 04:44:59:05 ARGENT
572 PIN STEPHANE D ...1 0 0..... 04:45:09:09 BRONZE
573 TALBERT GERARD I ........5 5 04:45:28:09 ARGENT
574 ROUSSEAU FLORENT D ...1 0 1..... 04:47:17:08 BRONZE
575 SOUIL ALAIN G ......8 8... 04:47:40:00 ARGENT
576 LANIER MICHEL I ........5 6 04:48:08:08 ARGENT
577 LANDREAT JACQUES I ........5 7 04:50:18:06 ARGENT
578 DUCOS BERNARD I ........5 8 04:50:20:06 ARGENT
579 BECKER LEOPOLD Y .........5 04:51:31:01 OR
580 MARCERON JEAN I ........5 9 04:51:38:06 ARGENT
581 GEORGES RENE I ........6 0 04:51:38:07 ARGENT
582 BOULLET PHILIPPE F .....1 1 4... 04:51:44:01 ARGENT
583 SEUNES MAURICE H .......9 0. 04:51:55:08 ARGENT
584 FOURCAULT CHRISTIAN I ........6 1 04:52:00:05 ARGENT
585 PREVITALI MICHEL H .......9 1. 04:52:16:00 ARGENT
586 GRAS ERIC E ....8 8..... 04:53:18:07 BRONZE
587 FAURE LAURENCE A 4......... 04:55:30:00 OR
588 GUY PASCAL F .....1 1 5... 04:55:31:01 ARGENT
589 CASSAERT JEAN MARC F .....1 1 6... 04:56:09:03 ARGENT
590 THUAIRE CHANTAL B .8........ 04:56:13:00 OR
591 THUAIRE MICHEL H .......9 2. 04:56:17:04 ARGENT
592 BERTEAU GERARD H .......9 3. 04:56:25:02 ARGENT
593 VOISIN AUDREY A 5......... 04:56:49:00 OR
594 VOISIN ELODIE A 6......... 04:56:52:08 OR
595 BUREAU MICHEL I ........6 2 05:00:28:00 ARGENT
596 BADET PASCAL E ....8 9..... 05:01:28:01 BRONZE
597 DEBOSSE JEAN I ........6 3 05:01:32:02 ARGENT
598 LECLERC JACQUES G ......8 9... 05:04:08:02 ARGENT
599 CHAVAGNAC REMY I ........6 4 05:04:12:05 ARGENT
600 VIDAL JORDI E ....9 0..... 05:06:01:02 BRONZE
601 FERNANDEZ JOSEP MARI F .....1 1 7... 05:06:13:09 ARGENT
602 BRUGNAUX BERNARD I ........6 5 05:07:04:03 ARGENT
603 COUSTOU JACQUES I ........6 6 05:10:00:07 ARGENT
604 ONILLION GUILLAUME E ....9 1..... 05:17:00:00 BRONZE
605 CASTAING GILBERT H .......9 4. 05:17:04:04 ARGENT
606 OIX ANNIE B .9........ 05:17:12:06 ARGENT
607 AGUILAR ALAIN H .......9 5. 05:21:56:02 ARGENT
608 KERENEUR CLAUDE H .......9 6. 05:28:57:06 ARGENT
609 RICHARD THIERRY D ...1 0 2..... 05:30:12:00 BRONZE
610 BOICHOT DOMINIQUE F .....1 1 8... 05:31:23:01 BRONZE

Haut 









Haut  
 Espacio privado   Derechos de autor-Copyright : haga clic ici para leer !